Content
SEND FEEDBACK

Daily
Averages
Monthly
Summary
France

DAX, FRANCE


Home > Europe > France
Elevation: 105 feet     Latitude: 43 41N     Longitude: 001 04W

WEATHER
 
SELECT A DAY
Number of Records: 35,813;   Date Range: 7/28/06 - 8/10/14
 
SHARE

PRINT THIS DATA

[ ← Previous Day ]
WEATHER ALMANAC - JANUARY 23, 2013
[ Next Day → ]
[ °C ]   °F
Weather ElementAverageHighLow
Temperature44.2 °F50 °F (1:00 pm)39.2 °F (1:00 am)
Dewpoint40.8 °F44.6 °F (12:00 pm)37.4 °F (2:00 am)
Humidity88 %100 % (1:00 am)76 % (9:00 am)
Barometer29.75 in29.86 in (4:00 pm)29.62 in (5:00 am)
Wind Speed9.5 mph16.1 mph (2:00 pm)
Wind Gust32.2 mph (12:00 pm)
Weather ElementAverage
Visibility5.2 mi
Wind DirectionSW (224.8 °)

Weather ElementTotal
Precipitation---
Heating Degree Days20.4 (Base 65)
Averaged from 23 records on January 23, 2013
WEATHER CONDITIONS BREAKOUT
WIND DIRECTION BREAKOUT
WEATHER BY HOUR - JANUARY 23, 2013
[ °C ]   °F
Local TimeTemperatureDewpointHumidityBarometerVisibilityWind DirectionWind SpeedGust SpeedPrecipitationEventsConditions
1:00 AM39.2 °F39.2 °F100 %29.65 in6.2 miSouth (170°)12.7 mphScattered Clouds
2:00 AM39.2 °F37.4 °F93 %29.65 in6.2 miSouth (180°)8.1 mphPartly Cloudy
3:00 AM41.0 °F39.2 °F93 %29.65 in6.2 miSouth (190°)11.5 mphMostly Cloudy
4:00 AM41.0 °F41.0 °F100 %29.65 in6.2 miSSW (210°)11.5 mphMostly Cloudy
5:00 AM42.8 °F41.0 °F93 %29.62 in6.2 miWSW (250°)11.5 mphPartly Cloudy
6:00 AM42.8 °F41.0 °F93 %29.65 inWSW (240°)11.5 mph28.8 mphMostly Cloudy
7:00 AM44.6 °F39.2 °F81 %29.65 in6.2 miWNW (290°)10.4 mphMostly Cloudy
8:00 AM44.6 °F41.0 °F87 %29.71 in6.2 miWest (280°)11.5 mph23.0 mphRainLight Rain Showers
9:00 AM44.6 °F37.4 °F76 %29.71 in5.0 miWNW (290°)10.4 mphMostly Cloudy
10:00 AM44.6 °F41.0 °F87 %29.71 in1.9 miWest (280°)10.4 mphRainLight Rain Showers
11:00 AM44.6 °F41.0 °F87 %29.77 in1.9 miWest (270°)10.4 mphRainLight Rain Showers
12:00 PM48.2 °F44.6 °F87 %29.80 in1.9 miWest (280°)10.4 mph32.2 mphRainRain Showers
1:00 PM50.0 °F42.8 °F76 %29.80 in5.0 miWNW (290°)12.7 mphMostly Cloudy
2:00 PM48.2 °F41.0 °F76 %29.80 in3.7 miWNW (300°)16.1 mph27.6 mphScattered Clouds
3:00 PM48.2 °F42.8 °F82 %29.83 in5.0 miWNW (290°)11.5 mphScattered Clouds
4:00 PM46.4 °F42.8 °F87 %29.86 in3.1 miNW (310°)10.4 mphRainRain Showers
5:00 PM44.6 °F41.0 °F87 %29.86 in6.2 miWNW (290°)5.8 mphMostly Cloudy
6:00 PM44.6 °F41.0 °F87 %29.86 in6.2 miVariable1.2 mphPartly Cloudy
7:00 PM42.8 °F41.0 °F93 %29.83 in6.2 miSSE (160°)4.6 mph
8:00 PM44.6 °F41.0 °F87 %29.83 in6.2 miSSW (200°)9.2 mphPartly Cloudy
9:00 PM44.6 °F41.0 °F87 %29.80 in6.2 miSSW (210°)8.1 mphScattered Clouds
10:00 PM42.8 °F41.0 °F93 %29.77 in6.2 miSouth (190°)4.6 mphMostly Cloudy
11:00 PM42.8 °F41.0 °F93 %29.74 in6.2 miVariable3.5 mphMostly Cloudy
Hourly data recorded from LFBY, located miles away from Dax, France







STORIES FROM OUR PARTNERS